Regional Weather Roundup
Issued by NWS

Home | Current Version | Previous Version | Graphics & Text | Print | Product List | Glossary On
Versions: 1 2 3 4 5 6 7 8 9 10 11 12 13 14 15 16 17 18 19 20 21 22 23 24
000
ASUS45 KCYS 232010
RWRWY

WYOMING REGIONAL WEATHER ROUNDUP
NATIONAL WEATHER SERVICE CHEYENNE WY
200 PM MDT THU OCT 23 2014

NOTE:  "FAIR" INDICATES FEW OR NO CLOUDS BELOW 12,000 FEET
WITH NO SIGNIFICANT WEATHER AND/OR OBSTRUCTIONS TO VISIBILITY.

WYZ001-232100-
YELLOWSTONE NATIONAL PARK

CITY           SKY/WX    TMP DP  RH WIND       PRES   REMARKS
LK YELLOWSTONE   N/A     51  25  36 SW9       30.18
W YELLOWSTONE  NOT AVBL

$$
WYZ002>013-054>058-071-098>099-232100-
NORTHERN WYOMING

CITY           SKY/WX    TMP DP  RH WIND       PRES   REMARKS
JACKSON        PTSUNNY   61  27  27 S18G24    30.13F
CODY           MOSUNNY   70  25  18 W15G21    29.96
GREYBULL       PTSUNNY   63  24  22 CALM      29.93F
WORLAND        MOSUNNY   70  27  20 N6        29.93F
SHERIDAN       MOSUNNY   75  29  18 NE6       29.90F
BUFFALO        MOSUNNY   70  19  14 E9        29.95F
GILLETTE       MOSUNNY   69  25  19 VRB7      29.93F
HULETT         FAIR      63  27  25 SW14G20   29.94
NEWCASTLE      FAIR      63  23  22 MISG      29.97

$$
WYZ014>020-022>026-101>103-232100-
CENTRAL WYOMING

CITY           SKY/WX    TMP DP  RH WIND       PRES   REMARKS
BIG PINEY      MOSUNNY   57  25  29 SW5       30.18F
PINEDALE       CLEAR     54  25  32 CALM      30.19F
DUBOIS         FAIR      57  21  24 W30G46    30.08F HAZE
LANDER         MOSUNNY   63  26  24 CALM      30.01F
RIVERTON       SUNNY     64  23  21 NE6       30.03F
CASPER         MOSUNNY   69  24  18 SW23G33   30.02F
DOUGLAS        MOSUNNY   71  25  17 W29G37    30.02S

$$
WYZ021-027>030-104>119-232100-
SOUTHERN WYOMING

CITY           SKY/WX    TMP DP  RH WIND       PRES   REMARKS
EVANSTON       SUNNY     66  24  20 SW21G29   30.19F
KEMMERER       PTCLDY    61  25  25 W15       30.20F
FORT BRIDGER   FAIR      68  23  18 W16G31    30.21F
ROCK SPRINGS   MOSUNNY   63  25  23 W15G22    30.17F
DIXON          FAIR      64  32  29 SW17G24   30.23F
RAWLINS        PTSUNNY   61  29  29 SW18G32   30.17F
SARATOGA       FAIR      63  30  29 SW21      30.20F
LARAMIE        PTSUNNY   63  25  23 W22G32    30.18F
CHEYENNE       CLOUDY    68  28  22 W24G33    30.13F
TORRINGTON     MOSUNNY   74  31  20 W12G21    30.00F
PINE BLUFFS    FAIR      70  32  24 W12G23    30.10F

$$



USA.gov is the U.S. government's official web portal to all federal, state and local government web resources and services.